Location: Columbus
(35.2256°N, 82.1549°W)
Time: 11:42:57
(UTC-04:00)

ACS3 Solar Sail - Visible Passes

Search period start: 17 July 2025 00:00
Search period end: 27 July 2025 00:00
Orbit: 911 x 1023 km, 97.4° (Epoch: 17 July)

Date Brightness Start Highest point End Pass type
(mag) Time Alt. Az. Time Alt. Az. Time Alt. Az.
17 Jul 3.6 05:33:26 10° NE 05:38:40 31° E 05:44:00 10° SSE visible
18 Jul 2.8 05:55:26 10° NNE 06:01:15 49° E 06:07:10 10° S visible
20 Jul 4.3 04:59:05 10° NE 05:02:29 15° E 05:05:55 10° SE visible
21 Jul 3.9 05:20:13 10° NE 05:25:07 25° E 05:30:04 10° SSE visible
22 Jul 3.2 05:41:59 10° NNE 05:47:39 40° E 05:53:25 10° SSE visible
24 Jul 4.5 04:46:28 10° ENE 04:48:40 12° E 04:50:54 10° ESE visible
25 Jul 4.2 05:06:51 10° NE 05:11:17 20° E 05:15:44 10° SE visible
26 Jul 3.5 05:28:20 10° NNE 05:33:47 33° E 05:39:17 10° SSE visible
